Location: Bellflower
(33.8817°N, 118.1170°W)
Time: 22:35:50
(UTC+00:00)

Atlas Centaur 2 - Pass Details

Date: 23 November 2020
Orbit: 459 x 1309 km, 30.4° (Epoch: 20 January)

Event Time Altitude Azimuth Distance (km) Brightness Sun altitude
Exits shadow 13:20:20 - 231° (SW) 3,117 4.8 -15.0°
Reaches altitude 10° 13:22:15 10° 225° (SW) 2,446 4.3 -14.6°
Maximum altitude 13:27:14 31° 165° (SSE) 1,228 3.4 -13.6°
Drops below altitude 10° 13:31:19 10° 102° (ESE) 1,977 5.7 -12.8°
Sets 13:33:36 0° 91° (E) 2,772 6.6 -12.3°
